Tampa Macdill AFB, FL

4:59 AM EDT on October 20, 2017 (GMT -0400)
MacDill Air Force Base

Weather History for KMCF - August, 2012

Change the Weather History Date:

Tuesday, August 14, 2012

  Actual Average Record
Temperature  
Mean Temperature 84 °F -  
Max Temperature 94 °F 88 °F 95 °F (1998)
Min Temperature 75 °F 73 °F 69 °F (2002)
Cooling Degree Days 19    
Growing Degree Days 34 (Base 50)    
Moisture  
Dew Point 77 °F    
Average Humidity 83    
Maximum Humidity 100    
Minimum Humidity 60    
Precipitation  
Precipitation 0.15 in - - ()
Sea Level Pressure  
Sea Level Pressure 30.03 in    
Wind  
Wind Speed 4 mph (SSW)    
Max Wind Speed 21 mph    
Max Gust Speed 29 mph    
Visibility 10 miles    
Events Rain , Thunderstorm    
Averages and records for this station are not official NWS values.
T = Trace of Precipitation, MM = Missing Value Source: NWS Daily Summary

Daily Weather History Graph

Daily Weather History Graph

Search for Another Location

Airport or City:

Trip Planner

Search our weather history database for the weather conditions in past years. The results will help you decide how hot, cold, wet, or windy it might be!

Date:

Astronomy

Aug. 14, 2012 Rise Set
Actual Time 7:00 AM EDT 8:08 PM EDT
Civil Twilight 6:35 AM EDT 8:33 PM EDT
Nautical Twilight 6:06 AM EDT 9:02 PM EDT
Astronomical Twilight 5:36 AM EDT 9:32 PM EDT
Moon 4:05 AM EDT (8/14) 5:56 PM EDT (8/14)
Length of Visible Light 13h 57m
Length of Day
13h 08m
Waning Crescent, 10% of the Moon is Illuminated
Aug 14
Waning Crescent
Aug 17
New
Aug 24
First Quarter
Aug 31
Full
Sep 8
Last Quarter

Hourly Weather History & Observations

Time (EDT) Temp. Heat Index Dew Point Humidity Pressure Visibility Wind Dir Wind Speed Gust Speed Precip Events Conditions
12:55 AM 77.9 °F - 75.6 °F 92% 30.06 in 10.0 mi Calm Calm - N/A   Clear
1:55 AM 77.5 °F - 75.9 °F 95% 30.04 in 10.0 mi Calm Calm - N/A   Clear
2:55 AM 76.5 °F - 75.2 °F 96% 30.02 in 10.0 mi Calm Calm - N/A   Clear
3:55 AM 77.5 °F - 77.5 °F 100% 30.01 in 10.0 mi SSW 5.8 mph - N/A   Clear
4:55 AM 78.4 °F - 78.4 °F 100% 30.01 in 10.0 mi Calm Calm - N/A   Scattered Clouds
5:55 AM 77.5 °F - 77.5 °F 100% 30.02 in 10.0 mi Calm Calm - N/A   Clear
6:55 AM 75.6 °F - 75.6 °F 100% 30.03 in 10.0 mi Calm Calm - N/A   Clear
7:55 AM 78.8 °F - 78.8 °F 100% 30.04 in 10.0 mi Calm Calm - N/A   Clear
8:55 AM 85.1 °F 106.3 °F 84.4 °F 98% 30.06 in 10.0 mi NNE 3.5 mph - N/A   Clear
9:55 AM 88.9 °F 105.2 °F 79.7 °F 74% 30.06 in 10.0 mi Calm Calm - N/A   Clear
10:55 AM 91.8 °F 107.6 °F 78.6 °F 65% 30.06 in 10.0 mi Calm Calm - N/A   Clear
11:55 AM 93.0 °F 110.5 °F 79.2 °F 64% 30.06 in 10.0 mi SW 4.6 mph - N/A   Clear
12:29 PM 91.4 °F 107.2 °F 78.8 °F 66% 30.05 in 10.0 mi Variable 4.6 mph - N/A Thunderstorm Thunderstorm
12:55 PM 91.0 °F 107.6 °F 79.3 °F 68% 30.04 in 10.0 mi West 8.1 mph - N/A Thunderstorm Thunderstorm
1:19 PM 87.8 °F 99.7 °F 77.0 °F 70% 30.04 in 10.0 mi NNW 6.9 mph - N/A Thunderstorm Clear
1:20 PM 87.8 °F 99.7 °F 77.0 °F 70% 30.05 in 10.0 mi NNW 6.9 mph - N/A Thunderstorm Thunderstorm
1:38 PM 89.6 °F 102.2 °F 77.0 °F 66% 30.04 in 10.0 mi North 6.9 mph - N/A Thunderstorm Partly Cloudy
1:55 PM 91.6 °F 106.3 °F 77.7 °F 64% 30.03 in 10.0 mi NW 5.8 mph - N/A   Clear
2:55 PM 93.2 °F 108.7 °F 78.1 °F 61% 30.03 in 10.0 mi Variable 5.8 mph - N/A   Clear
3:55 PM 90.1 °F 100.0 °F 74.7 °F 60% 30.01 in 10.0 mi NNE 8.1 mph - N/A   Scattered Clouds
4:41 PM 89.6 °F 102.2 °F 77.0 °F 66% 30.01 in 10.0 mi NE 5.8 mph - N/A Rain Light Rain
4:55 PM 85.3 °F 97.6 °F 78.6 °F 80% 30.01 in 10.0 mi East 5.8 mph - 0.11 in Rain Light Rain
5:01 PM 84.2 °F 98.3 °F 80.6 °F 89% 30.01 in 10.0 mi East 8.1 mph - N/A   Mostly Cloudy
5:23 PM 82.4 °F 90.9 °F 77.0 °F 84% 30.02 in 10.0 mi SE 16.1 mph - N/A Thunderstorm Overcast
5:41 PM 78.8 °F - 75.2 °F 89% 30.01 in 10.0 mi South 20.7 mph 28.8 mph N/A Rain , Thunderstorm Light Thunderstorms and Rain
5:55 PM 77.2 °F - 76.1 °F 96% 30.00 in 10.0 mi SSW 17.3 mph - 0.04 in Rain , Thunderstorm Light Thunderstorms and Rain
5:59 PM 77.0 °F - 77.0 °F 100% 30.01 in 10.0 mi SSW 17.3 mph - N/A Rain Light Rain
6:09 PM 78.8 °F - 77.0 °F 94% 30.00 in 10.0 mi SSW 16.1 mph - N/A   Clear
6:55 PM 81.3 °F 88.5 °F 76.8 °F 86% 30.01 in 10.0 mi SSE 4.6 mph - 0.00 in   Clear
7:55 PM 80.8 °F 86.9 °F 75.9 °F 85% 30.01 in 10.0 mi South 3.5 mph - N/A   Clear
8:55 PM 79.7 °F - 74.8 °F 85% 30.02 in 10.0 mi SSW 8.1 mph - N/A   Mostly Cloudy
9:55 PM 79.3 °F - 75.4 °F 88% 30.04 in 10.0 mi SSW 4.6 mph - N/A   Overcast
10:55 PM 77.2 °F - 75.4 °F 94% 30.06 in 10.0 mi SSW 6.9 mph - N/A   Clear
11:55 PM 77.4 °F - 74.5 °F 91% 30.05 in 10.0 mi Calm Calm - N/A   Clear